| time (UTC) | temp C | wind direction | speed KPH | gust KPH | rain 1hr cm | rain 24hr cm | rain mn cm | humidity % | barometer mb |
| 20260505032626 | 19 | 167 | 3.2 | 9.7 | 0.00 | 0.00 | 0.00 | 62 | 1018.2 |
| 20260505032113 | 19 | 245 | 3.2 | 9.7 | 0.00 | 0.00 | 0.00 | 60 | 1018.2 |
| 20260505031628 | 19 | 225 | 4.8 | 9.7 | 0.00 | 0.00 | 0.00 | 62 | 1018.3 |
| 20260505031115 | 18 | 136 | 4.8 | 9.7 | 0.00 | 0.00 | 0.00 | 64 | 1018.3 |
| 20260505030629 | 18 | 134 | 4.8 | 16.1 | 0.00 | 0.00 | 0.00 | 65 | 1018.4 |
| 20260505030116 | 18 | 44 | 6.4 | 16.1 | 0.00 | 0.00 | 0.00 | 66 | 1018.4 |
| 20260505025610 | 18 | 109 | 4.8 | 17.7 | 0.00 | 0.00 | 0.00 | 65 | 1018.4 |
| 20260505025122 | 18 | 65 | 6.4 | 17.7 | 0.00 | 0.00 | 0.00 | 65 | 1018.5 |
| 20260505024631 | 18 | 63 | 8.0 | 11.3 | 0.00 | 0.00 | 0.00 | 65 | 1018.6 |
| 20260505024141 | 18 | 48 | 6.4 | 12.9 | 0.00 | 0.00 | 0.00 | 65 | 1018.6 |
| 20260505023633 | 18 | 56 | 4.8 | 12.9 | 0.00 | 0.00 | 0.00 | 64 | 1018.8 |
| 20260505023120 | 18 | 342 | 4.8 | 11.3 | 0.00 | 0.00 | 0.00 | 65 | 1018.8 |
| 20260505022633 | 18 | 309 | 6.4 | 11.3 | 0.00 | 0.00 | 0.00 | 65 | 1019.0 |
| 20260505022119 | 18 | 74 | 4.8 | 16.1 | 0.00 | 0.00 | 0.00 | 67 | 1019.0 |
| 20260505021611 | 17 | 82 | 6.4 | 16.1 | 0.00 | 0.00 | 0.00 | 67 | 1018.9 |
| 20260505021122 | 17 | 59 | 8.0 | 14.5 | 0.00 | 0.00 | 0.00 | 66 | 1018.9 |
| 20260505020615 | 17 | 103 | 6.4 | 11.3 | 0.00 | 0.00 | 0.00 | 67 | 1018.9 |
| 20260505020122 | 17 | 75 | 8.0 | 12.9 | 0.00 | 0.00 | 0.00 | 66 | 1019.0 |
| 20260505015635 | 17 | 58 | 4.8 | 12.9 | 0.00 | 0.00 | 0.00 | 66 | 1019.1 |
| 20260505015120 | 17 | 75 | 8.0 | 12.9 | 0.00 | 0.00 | 0.00 | 66 | 1019.0 |
| 20260505014611 | 17 | 114 | 3.2 | 12.9 | 0.00 | 0.00 | 0.00 | 66 | 1019.0 |
| 20260505014123 | 17 | 53 | 6.4 | 11.3 | 0.00 | 0.00 | 0.00 | 67 | 1019.0 |
| 20260505013635 | 17 | 82 | 6.4 | 12.9 | 0.00 | 0.00 | 0.00 | 67 | 1019.1 |
| 20260505013123 | 17 | 45 | 8.0 | 12.9 | 0.00 | 0.00 | 0.00 | 69 | 1019.1 |
| 20260505012634 | 17 | 64 | 8.0 | 14.5 | 0.00 | 0.00 | 0.00 | 69 | 1019.1 |
| 20260505012115 | 17 | 116 | 6.4 | 14.5 | 0.00 | 0.00 | 0.00 | 70 | 1019.1 |
| 20260505011626 | 17 | 77 | 8.0 | 14.5 | 0.00 | 0.00 | 0.00 | 70 | 1019.0 |
| 20260505011137 | 17 | 54 | 6.4 | 11.3 | 0.00 | 0.00 | 0.00 | 71 | 1019.1 |
| 20260505010621 | 17 | 302 | 8.0 | 11.3 | 0.00 | 0.00 | 0.00 | 71 | 1019.1 |
| 20260505010134 | 17 | 14 | 6.4 | 11.3 | 0.00 | 0.00 | 0.00 | 72 | 1019.0 |
| 20260505005618 | 17 | 328 | 4.8 | 12.9 | 0.00 | 0.00 | 0.00 | 73 | 1019.0 |
| 20260505005123 | 16 | 56 | 6.4 | 12.9 | 0.00 | 0.00 | 0.00 | 72 | 1019.0 |
| 20260505004656 | 17 | 24 | 3.2 | 11.3 | 0.00 | 0.00 | 0.00 | 73 | 1018.9 |
| 20260505004117 | 16 | 12 | 3.2 | 11.3 | 0.00 | 0.00 | 0.00 | 74 | 1018.9 |
| 20260505003628 | 16 | 139 | 3.2 | 12.9 | 0.00 | 0.00 | 0.00 | 73 | 1018.8 |
| 20260505003114 | 16 | 62 | 8.0 | 16.1 | 0.00 | 0.00 | 0.00 | 73 | 1018.8 |
| 20260505002625 | 16 | 34 | 6.4 | 16.1 | 0.00 | 0.00 | 0.00 | 72 | 1018.9 |
| 20260505002137 | 16 | 317 | 6.4 | 11.3 | 0.00 | 0.00 | 0.00 | 72 | 1018.8 |
| 20260505001621 | 16 | 61 | 4.8 | 9.7 | 0.00 | 0.00 | 0.00 | 71 | 1018.8 |
| 20260505001134 | 16 | 335 | 3.2 | 9.7 | 0.00 | 0.00 | 0.00 | 72 | 1018.7 |
| 20260505000618 | 16 | 9 | 3.2 | 9.7 | 0.00 | 0.00 | 0.00 | 72 | 1018.7 |
| 20260505000112 | 16 | 184 | 3.2 | 9.7 | 0.00 | 0.00 | 0.00 | 72 | 1018.7 |
| 20260504235121 | 16 | 329 | 1.6 | 9.7 | 0.00 | 0.00 | 0.00 | 71 | 1018.8 |
| 20260504234632 | 15 | 128 | 3.2 | 9.7 | 0.00 | 0.00 | 0.00 | 71 | 1018.9 |
| 20260504234117 | 15 | 305 | 3.2 | 12.9 | 0.00 | 0.00 | 0.00 | 71 | 1018.8 |
| 20260504233629 | 15 | 98 | 3.2 | 12.9 | 0.00 | 0.00 | 0.00 | 71 | 1018.8 |
| 20260504233113 | 15 | 96 | 4.8 | 8.0 | 0.00 | 0.00 | 0.00 | 71 | 1018.8 |
| 20260504232623 | 15 | 96 | 3.2 | 6.4 | 0.00 | 0.00 | 0.00 | 72 | 1018.8 |
| 20260504232134 | 15 | 82 | 3.2 | 8.0 | 0.00 | 0.00 | 0.00 | 72 | 1018.6 |
| 20260504231619 | 15 | 82 | 4.8 | 8.0 | 0.00 | 0.00 | 0.00 | 73 | 1018.5 |
| 20260504231125 | 15 | 35 | 3.2 | 6.4 | 0.00 | 0.00 | 0.00 | 73 | 1018.6 |
| 20260504230635 | 15 | 65 | 3.2 | 8.0 | 0.00 | 0.00 | 0.00 | 74 | 1018.6 |
| 20260504230119 | 15 | 147 | 3.2 | 8.0 | 0.00 | 0.00 | 0.00 | 75 | 1018.5 |
| 20260504225610 | 15 | 176 | 1.6 | 6.4 | 0.00 | 0.00 | 0.00 | 75 | 1018.4 |
| 20260504225120 | 14 | 180 | 1.6 | 4.8 | 0.00 | 0.00 | 0.00 | 77 | 1018.5 |
| 20260504224631 | 14 | 158 | 0.0 | 4.8 | 0.00 | 0.00 | 0.00 | 79 | 1018.5 |
| 20260504224116 | 14 | 78 | 1.6 | 3.2 | 0.00 | 0.00 | 0.00 | 80 | 1018.4 |
| 20260504223627 | 13 | 174 | 0.0 | 1.6 | 0.00 | 0.00 | 0.00 | 82 | 1018.3 |
| 20260504223133 | 13 | 174 | 0.0 | 6.4 | 0.00 | 0.00 | 0.00 | 82 | 1018.3 |
| 20260504222616 | 13 | 186 | 1.6 | 6.4 | 0.00 | 0.00 | 0.00 | 82 | 1018.3 |
| 20260504222149 | 13 | 196 | 1.6 | 4.8 | 0.00 | 0.00 | 0.00 | 83 | 1018.3 |
| 20260504221611 | 12 | 179 | 0.0 | 4.8 | 0.00 | 0.00 | 0.00 | 84 | 1018.4 |
| 20260504221122 | 12 | 194 | 1.6 | 4.8 | 0.00 | 0.00 | 0.00 | 85 | 1018.2 |
| 20260504220633 | 12 | 186 | 0.0 | 6.4 | 0.00 | 0.00 | 0.00 | 86 | 1018.3 |
| 20260504220117 | 12 | 205 | 3.2 | 6.4 | 0.00 | 0.00 | 0.00 | 87 | 1018.2 |
| 20260504215648 | 11 | 182 | 1.6 | 4.8 | 0.00 | 0.00 | 0.00 | 88 | 1018.1 |
| 20260504215136 | 11 | 188 | 1.6 | 3.2 | 0.00 | 0.00 | 0.00 | 88 | 1018.2 |
| 20260504214642 | 11 | 187 | 1.6 | 4.8 | 0.00 | 0.00 | 0.00 | 89 | 1018.2 |
| 20260504214153 | 11 | 176 | 1.6 | 4.8 | 0.00 | 0.00 | 0.00 | 89 | 1018.1 |
| 20260504213617 | 10 | 185 | 1.6 | 4.8 | 0.00 | 0.00 | 0.00 | 90 | 1017.9 |
| 20260504213127 | 10 | 186 | 3.2 | 4.8 | 0.00 | 0.00 | 0.00 | 90 | 1017.9 |
| 20260504212611 | 10 | 186 | 1.6 | 6.4 | 0.00 | 0.00 | 0.00 | 90 | 1017.9 |
| 20260504212113 | 10 | 183 | 1.6 | 6.4 | 0.00 | 0.00 | 0.00 | 90 | 1017.8 |
| 20260504211624 | 10 | 195 | 3.2 | 4.8 | 0.00 | 0.00 | 0.00 | 90 | 1017.7 |
| 20260504211110 | 9 | 200 | 3.2 | 4.8 | 0.00 | 0.00 | 0.00 | 91 | 1017.8 |
| 20260504210621 | 9 | 191 | 1.6 | 3.2 | 0.00 | 0.00 | 0.00 | 91 | 1017.7 |
| 20260504210134 | 9 | 168 | 1.6 | 1.6 | 0.00 | 0.00 | 0.00 | 90 | 1017.7 |
| 20260504205620 | 8 | 167 | 0.0 | 1.6 | 0.00 | 0.00 | 0.00 | 90 | 1017.6 |
| 20260504205152 | 8 | 167 | 0.0 | 1.6 | 0.00 | 0.00 | 0.00 | 90 | 1017.7 |
| 20260504204617 | 8 | 167 | 0.0 | 1.6 | 0.00 | 0.00 | 0.00 | 90 | 1017.7 |
| 20260504204110 | 8 | 167 | 0.0 | 1.6 | 0.00 | 0.00 | 0.00 | 90 | 1017.7 |
| 20260504203638 | 8 | 167 | 0.0 | 1.6 | 0.00 | 0.00 | 0.00 | 90 | 1017.6 |
| 20260504203125 | 8 | 168 | 0.0 | 1.6 | 0.00 | 0.00 | 0.00 | 90 | 1017.5 |
| 20260504202611 | 8 | 167 | 0.0 | 0.0 | 0.00 | 0.00 | 0.00 | 89 | 1017.6 |
| 20260504202128 | 8 | 168 | 0.0 | 0.0 | 0.00 | 0.00 | 0.00 | 89 | 1017.6 |
| 20260504201615 | 8 | 167 | 0.0 | 0.0 | 0.00 | 0.00 | 0.00 | 89 | 1017.5 |
| 20260504201128 | 8 | 168 | 0.0 | 1.6 | 0.00 | 0.00 | 0.00 | 89 | 1017.5 |
| 20260504200615 | 8 | 168 | 1.6 | 1.6 | 0.00 | 0.00 | 0.00 | 90 | 1017.4 |
| 20260504200128 | 8 | 168 | 0.0 | 1.6 | 0.00 | 0.00 | 0.00 | 90 | 1017.5 |
| 20260504195615 | 8 | 168 | 0.0 | 1.6 | 0.00 | 0.00 | 0.00 | 89 | 1017.3 |
| 20260504195130 | 9 | 168 | 0.0 | 3.2 | 0.00 | 0.00 | 0.00 | 89 | 1017.3 |
| 20260504194612 | 9 | 168 | 1.6 | 3.2 | 0.00 | 0.00 | 0.00 | 90 | 1017.2 |
| 20260504194125 | 9 | 167 | 1.6 | 3.2 | 0.00 | 0.00 | 0.00 | 90 | 1017.2 |
| 20260504193613 | 8 | 167 | 0.0 | 1.6 | 0.00 | 0.00 | 0.00 | 89 | 1017.1 |
| 20260504193127 | 8 | 167 | 0.0 | 1.6 | 0.00 | 0.00 | 0.00 | 89 | 1017.0 |
| 20260504192634 | 9 | 167 | 0.0 | 1.6 | 0.00 | 0.00 | 0.00 | 89 | 1017.0 |
| 20260504192127 | 9 | 167 | 0.0 | 0.0 | 0.00 | 0.00 | 0.00 | 89 | 1017.1 |
| 20260504191616 | 9 | 167 | 0.0 | 1.6 | 0.00 | 0.00 | 0.00 | 90 | 1017.1 |
| 20260504191129 | 9 | 167 | 0.0 | 1.6 | 0.00 | 0.00 | 0.00 | 89 | 1016.9 |
| 20260504190640 | 9 | 167 | 0.0 | 1.6 | 0.00 | 0.00 | 0.00 | 89 | 1016.9 |
| 20260504190128 | 9 | 167 | 1.6 | 1.6 | 0.00 | 0.00 | 0.00 | 90 | 1016.8 |
| 20260504185618 | 9 | 176 | 0.0 | 1.6 | 0.00 | 0.00 | 0.00 | 89 | 1016.8 |
| 20260504185130 | 9 | 178 | 1.6 | 1.6 | 0.00 | 0.00 | 0.00 | 89 | 1016.7 |
| 20260504184619 | 9 | 178 | 0.0 | 1.6 | 0.00 | 0.00 | 0.00 | 89 | 1016.8 |
| 20260504184132 | 9 | 178 | 1.6 | 1.6 | 0.00 | 0.00 | 0.00 | 89 | 1016.6 |
| 20260504183621 | 9 | 178 | 0.0 | 3.2 | 0.00 | 0.00 | 0.00 | 89 | 1016.6 |
| 20260504183134 | 9 | 179 | 1.6 | 3.2 | 0.00 | 0.00 | 0.00 | 89 | 1016.5 |
| 20260504182617 | 9 | 158 | 0.0 | 1.6 | 0.00 | 0.00 | 0.00 | 89 | 1016.6 |
| 20260504182128 | 9 | 158 | 0.0 | 1.6 | 0.00 | 0.00 | 0.00 | 89 | 1016.4 |
| 20260504181616 | 9 | 158 | 0.0 | 0.0 | 0.00 | 0.00 | 0.00 | 89 | 1016.5 |
| 20260504181130 | 10 | 158 | 0.0 | 0.0 | 0.00 | 0.00 | 0.00 | 89 | 1016.4 |
| 20260504180616 | 10 | 158 | 0.0 | 1.6 | 0.00 | 0.00 | 0.00 | 89 | 1016.5 |
| 20260504180130 | 10 | 158 | 0.0 | 1.6 | 0.00 | 0.00 | 0.00 | 89 | 1016.4 |
| 20260504175616 | 10 | 158 | 1.6 | 1.6 | 0.00 | 0.00 | 0.00 | 89 | 1016.3 |
| 20260504175130 | 10 | 158 | 0.0 | 1.6 | 0.00 | 0.00 | 0.00 | 89 | 1016.4 |
| 20260504174615 | 10 | 158 | 0.0 | 1.6 | 0.00 | 0.00 | 0.00 | 89 | 1016.3 |
| 20260504174126 | 10 | 158 | 0.0 | 0.0 | 0.00 | 0.00 | 0.00 | 89 | 1016.4 |
| 20260504173636 | 10 | 158 | 0.0 | 0.0 | 0.00 | 0.00 | 0.00 | 88 | 1016.3 |
| 20260504172617 | 10 | 158 | 0.0 | 0.0 | 0.00 | 0.00 | 0.00 | 88 | 1016.2 |
| 20260504172130 | 10 | 158 | 0.0 | 1.6 | 0.00 | 0.00 | 0.00 | 88 | 1016.2 |
| 20260504171640 | 10 | 158 | 0.0 | 1.6 | 0.00 | 0.00 | 0.00 | 88 | 1016.1 |
| 20260504171132 | 10 | 158 | 0.0 | 3.2 | 0.00 | 0.00 | 0.00 | 89 | 1016.1 |
| 20260504170616 | 10 | 158 | 1.6 | 3.2 | 0.00 | 0.00 | 0.00 | 88 | 1016.1 |
| 20260504170130 | 10 | 154 | 0.0 | 1.6 | 0.00 | 0.00 | 0.00 | 88 | 1016.0 |
| 20260504160118 | 10 | 154 | 0.0 | 1.6 | 0.00 | 0.00 | 0.00 | 87 | 1015.8 |
| 20260504150637 | 11 | 155 | 0.0 | 0.0 | 0.00 | 0.00 | 0.00 | 86 | 1016.1 |
| 20260504150128 | 11 | 155 | 0.0 | 0.0 | 0.00 | 0.00 | 0.00 | 86 | 1016.1 |
| 20260504141112 | 11 | 154 | 0.0 | 1.6 | 0.00 | 0.00 | 0.00 | 84 | 1016.0 |
| 20260504140644 | 11 | 154 | 0.0 | 1.6 | 0.00 | 0.00 | 0.00 | 84 | 1016.0 |
| 20260504140133 | 11 | 154 | 0.0 | 1.6 | 0.00 | 0.00 | 0.00 | 85 | 1016.0 |
| 20260504130615 | 12 | 148 | 0.0 | 0.0 | 0.00 | 0.00 | 0.00 | 83 | 1015.8 |
| 20260504130129 | 12 | 148 | 0.0 | 1.6 | 0.00 | 0.00 | 0.00 | 82 | 1015.7 |
| 20260504120114 | 12 | 168 | 1.6 | 3.2 | 0.00 | 0.10 | 0.00 | 80 | 1014.9 |
| 20260504110638 | 14 | 155 | 0.0 | 1.6 | 0.00 | 0.10 | 0.00 | 76 | 1013.9 |
| 20260504110153 | 14 | 155 | 0.0 | 1.6 | 0.00 | 0.89 | 0.00 | 75 | 1013.9 |
| 20260504100615 | 16 | 113 | 0.0 | 4.8 | 0.00 | 0.89 | 0.00 | 69 | 1013.1 |
| 20260504100126 | 16 | 139 | 3.2 | 4.8 | 0.00 | 1.60 | 0.00 | 69 | 1013.2 |
| 20260504090141 | 16 | 158 | 3.2 | 22.5 | 0.00 | 2.21 | 0.00 | 67 | 1012.6 |
| 20260504081627 | 17 | 150 | 4.8 | 22.5 | 0.00 | 2.21 | 0.00 | 64 | 1012.4 |
| 20260504081111 | 17 | 181 | 8.0 | 22.5 | 0.00 | 2.21 | 0.00 | 63 | 1012.4 |
| 20260504080612 | 17 | 75 | 6.4 | 22.5 | 0.00 | 2.21 | 0.00 | 62 | 1012.6 |
| 20260504080123 | 17 | 126 | 6.4 | 19.3 | 0.00 | 4.90 | 0.00 | 63 | 1012.4 |
| 20260504070129 | 17 | 98 | 4.8 | 30.6 | 0.00 | 11.20 | 0.00 | 62 | 1012.0 |
| 20260504060113 | 17 | 160 | 9.7 | 33.8 | 0.00 | 15.60 | 0.00 | 59 | 1011.3 |
| 20260504050621 | 18 | 109 | 9.7 | 25.7 | 0.00 | 15.60 | 0.00 | 52 | 1010.8 |
| 20260504050132 | 18 | 110 | 9.7 | 20.9 | 0.00 | 18.80 | 0.00 | 53 | 1010.8 |
| 20260504045616 | 18 | 191 | 8.0 | 35.4 | 0.00 | 18.80 | 0.00 | 45 | 1010.7 |
| 20260504045129 | 18 | 157 | 12.9 | 35.4 | 0.00 | 18.80 | 0.00 | 46 | 1010.8 |
| 20260504044633 | 18 | 181 | 8.0 | 27.4 | 0.00 | 18.80 | 0.00 | 51 | 1010.7 |
| 20260504044120 | 18 | 120 | 4.8 | 27.4 | 0.00 | 18.80 | 0.00 | 56 | 1010.7 |
| 20260504043633 | 18 | 134 | 8.0 | 22.5 | 0.00 | 18.80 | 0.00 | 54 | 1010.6 |
| 20260504043120 | 18 | 186 | 9.7 | 27.4 | 0.00 | 18.80 | 0.00 | 55 | 1010.5 |
| 20260504042628 | 18 | 172 | 9.7 | 27.4 | 0.00 | 18.80 | 0.00 | 55 | 1010.5 |
| 20260504042136 | 19 | 134 | 11.3 | 22.5 | 0.00 | 18.80 | 0.00 | 54 | 1010.5 |
| 20260504041628 | 18 | 120 | 14.5 | 29.0 | 0.00 | 18.80 | 0.00 | 54 | 1010.4 |
| 20260504041111 | 18 | 79 | 9.7 | 43.5 | 0.00 | 18.80 | 0.00 | 57 | 1010.3 |
| 20260504040623 | 18 | 136 | 14.5 | 43.5 | 0.00 | 18.80 | 0.00 | 56 | 1010.3 |
| 20260504040135 | 18 | 136 | 9.7 | 25.7 | 0.00 | 19.71 | 0.00 | 52 | 1010.2 |
| 20260504035621 | 18 | 144 | 9.7 | 33.8 | 0.00 | 19.71 | 0.00 | 55 | 1010.3 |
| 20260504035111 | 18 | 103 | 8.0 | 33.8 | 0.00 | 19.71 | 0.00 | 56 | 1010.3 |
| 20260504034619 | 19 | 139 | 9.7 | 27.4 | 0.00 | 19.71 | 0.00 | 54 | 1010.3 |
| 20260504034130 | 18 | 77 | 8.0 | 27.4 | 0.00 | 19.71 | 0.00 | 51 | 1010.3 |
| 20260504033618 | 19 | 115 | 8.0 | 22.5 | 0.00 | 19.71 | 0.00 | 53 | 1010.5 |
| 20260504033131 | 18 | 165 | 8.0 | 24.1 | 0.00 | 19.71 | 0.00 | 52 | 1010.3 |